When you browse on this site, cookies collect data to enhance your experience and personalize the content and advertising you see.
Visit our Privacy Policy to learn more. By continuing to use the site, you agree to this use of cookies and data.

Hourly Weather Yucy

Today, 6 July, Monday

Time Temperature Precipitation Wind Pressure Humidity
00:00 +19°C° 0 mm 4 mps 746 mmHg 87%
01:00 +19°C° 0 mm 4 mps 746 mmHg 86%
02:00 +19°C° 0 mm 4 mps 746 mmHg 84%
03:00 +19°C° 0.3 mm 4 mps 745 mmHg 88%
04:00 +19°C° 0.3 mm 4 mps 745 mmHg 92%
05:00 +19°C° 0.3 mm 4 mps 745 mmHg 96%
06:00 +19°C° 0.1 mm 4 mps 745 mmHg 93%
07:00 +19°C° 0.1 mm 4 mps 745 mmHg 90%
08:00 +19°C° 0 mm 4 mps 746 mmHg 87%
09:00 +19°C° 0.1 mm 4 mps 746 mmHg 88%
10:00 +18°C° 0.1 mm 4 mps 746 mmHg 89%
11:00 +17°C° 0.1 mm 3 mps 746 mmHg 90%
12:00 +18°C° 0.1 mm 3 mps 746 mmHg 86%
13:00 +19°C° 0.1 mm 3 mps 746 mmHg 83%
14:00 +19°C° 0.1 mm 3 mps 746 mmHg 79%
15:00 +20°C° 0 mm 3 mps 746 mmHg 75%
16:00 +20°C° 0 mm 3 mps 746 mmHg 72%
17:00 +21°C° 0 mm 3 mps 746 mmHg 69%
18:00 +20°C° 0 mm 3 mps 745 mmHg 73%
19:00 +19°C° 0 mm 2 mps 745 mmHg 76%
20:00 +19°C° 0 mm 1 mps 745 mmHg 80%
21:00 +18°C° 0 mm 1 mps 745 mmHg 84%
22:00 +16°C° 0 mm 1 mps 745 mmHg 88%
23:00 +14°C° 0 mm 1 mps 746 mmHg 92%

Tomorrow, 7 July, Tuesday

Time Temperature Precipitation Wind Pressure Humidity
00:00 +15°C° 0 mm 1 mps 746 mmHg 90%
01:00 +15°C° 0 mm 1 mps 746 mmHg 88%
02:00 +15°C° 0 mm 1 mps 746 mmHg 86%
03:00 +15°C° 0 mm 1 mps 746 mmHg 85%
04:00 +15°C° 0 mm 2 mps 746 mmHg 84%
05:00 +15°C° 0 mm 2 mps 747 mmHg 84%
06:00 +16°C° 0 mm 2 mps 747 mmHg 78%
07:00 +16°C° 0 mm 2 mps 747 mmHg 73%
08:00 +17°C° 0 mm 3 mps 747 mmHg 67%
09:00 +17°C° 0 mm 3 mps 747 mmHg 64%
10:00 +18°C° 0 mm 3 mps 747 mmHg 62%
11:00 +19°C° 0 mm 3 mps 748 mmHg 60%
12:00 +20°C° 0 mm 3 mps 748 mmHg 56%
13:00 +21°C° 0 mm 3 mps 748 mmHg 52%
14:00 +22°C° 0 mm 3 mps 748 mmHg 49%
15:00 +21°C° 0 mm 3 mps 748 mmHg 52%
16:00 +21°C° 0 mm 3 mps 748 mmHg 55%
17:00 +20°C° 0 mm 3 mps 748 mmHg 59%
18:00 +19°C° 0.1 mm 2 mps 748 mmHg 66%
19:00 +18°C° 0.1 mm 2 mps 748 mmHg 73%
20:00 +17°C° 0.1 mm 2 mps 748 mmHg 81%
21:00 +16°C° 0 mm 2 mps 748 mmHg 81%
22:00 +15°C° 0 mm 2 mps 748 mmHg 82%
23:00 +15°C° 0 mm 2 mps 748 mmHg 82%

Day after tomorrow, 8 July, Wednesday

Time Temperature Precipitation Wind Pressure Humidity
00:00 +14°C° 0 mm 2 mps 748 mmHg 87%
01:00 +13°C° 0 mm 2 mps 748 mmHg 91%
02:00 +12°C° 0 mm 2 mps 748 mmHg 96%
03:00 +12°C° 0 mm 2 mps 748 mmHg 95%
04:00 +12°C° 0 mm 2 mps 749 mmHg 94%
05:00 +12°C° 0 mm 2 mps 749 mmHg 94%
06:00 +14°C° 0 mm 2 mps 749 mmHg 85%
07:00 +15°C° 0 mm 2 mps 749 mmHg 76%
08:00 +17°C° 0 mm 2 mps 749 mmHg 68%
09:00 +18°C° 0 mm 3 mps 749 mmHg 61%
10:00 +19°C° 0 mm 3 mps 749 mmHg 55%
11:00 +20°C° 0 mm 3 mps 749 mmHg 49%
12:00 +21°C° 0 mm 4 mps 749 mmHg 47%
13:00 +21°C° 0 mm 4 mps 748 mmHg 45%
14:00 +22°C° 0 mm 4 mps 748 mmHg 44%
15:00 +21°C° 0.1 mm 4 mps 749 mmHg 50%
16:00 +20°C° 0.1 mm 4 mps 749 mmHg 57%
17:00 +19°C° 0.1 mm 3 mps 749 mmHg 64%
18:00 +18°C° 0.1 mm 3 mps 749 mmHg 69%
19:00 +17°C° 0.1 mm 2 mps 749 mmHg 75%
20:00 +16°C° 0.1 mm 2 mps 749 mmHg 80%
21:00 +15°C° 0 mm 2 mps 749 mmHg 83%
22:00 +14°C° 0 mm 2 mps 750 mmHg 85%
23:00 +13°C° 0 mm 2 mps 750 mmHg 88%

9 July, Thursday

Time Temperature Precipitation Wind Pressure Humidity
00:00 +13°C° 0 mm 2 mps 750 mmHg 91%
01:00 +12°C° 0 mm 2 mps 750 mmHg 94%
02:00 +10°C° 0 mm 2 mps 750 mmHg 96%
03:00 +10°C° 0 mm 2 mps 751 mmHg 95%
04:00 +10°C° 0 mm 2 mps 751 mmHg 95%
05:00 +10°C° 0 mm 2 mps 751 mmHg 94%
06:00 +13°C° 0 mm 2 mps 751 mmHg 85%
07:00 +14°C° 0 mm 2 mps 752 mmHg 77%
08:00 +16°C° 0 mm 2 mps 752 mmHg 69%
09:00 +17°C° 0 mm 2 mps 752 mmHg 63%
10:00 +18°C° 0 mm 2 mps 752 mmHg 58%
11:00 +19°C° 0 mm 3 mps 753 mmHg 53%
12:00 +20°C° 0 mm 3 mps 753 mmHg 50%
13:00 +20°C° 0 mm 3 mps 752 mmHg 47%
14:00 +21°C° 0 mm 3 mps 752 mmHg 44%
15:00 +21°C° 0.1 mm 3 mps 752 mmHg 49%
16:00 +20°C° 0.1 mm 3 mps 753 mmHg 54%
17:00 +19°C° 0.1 mm 3 mps 753 mmHg 59%
18:00 +18°C° 0.1 mm 2 mps 753 mmHg 66%
19:00 +17°C° 0.1 mm 2 mps 753 mmHg 74%
20:00 +15°C° 0.1 mm 2 mps 753 mmHg 81%
21:00 +14°C° 0 mm 2 mps 753 mmHg 83%
22:00 +13°C° 0 mm 1 mps 754 mmHg 85%
23:00 +11°C° 0 mm 1 mps 754 mmHg 88%

10 July, Friday

Time Temperature Precipitation Wind Pressure Humidity
00:00 +11°C° 0 mm 1 mps 754 mmHg 88%
01:00 +10°C° 0 mm 1 mps 754 mmHg 89%
02:00 +10°C° 0 mm 1 mps 754 mmHg 90%
03:00 +10°C° 0 mm 1 mps 755 mmHg 89%
04:00 +10°C° 0 mm 1 mps 755 mmHg 88%
05:00 +10°C° 0 mm 1 mps 755 mmHg 87%
06:00 +13°C° 0 mm 1 mps 755 mmHg 78%
07:00 +15°C° 0 mm 1 mps 755 mmHg 69%
08:00 +17°C° 0 mm 2 mps 755 mmHg 60%
09:00 +18°C° 0 mm 2 mps 754 mmHg 56%
10:00 +20°C° 0 mm 2 mps 754 mmHg 51%
11:00 +21°C° 0 mm 2 mps 754 mmHg 46%
12:00 +22°C° 0 mm 3 mps 754 mmHg 45%
13:00 +22°C° 0 mm 3 mps 753 mmHg 44%
14:00 +22°C° 0 mm 3 mps 753 mmHg 44%
15:00 +22°C° 0 mm 3 mps 752 mmHg 44%
16:00 +22°C° 0 mm 3 mps 752 mmHg 44%
17:00 +22°C° 0 mm 3 mps 752 mmHg 44%
18:00 +20°C° 0 mm 2 mps 751 mmHg 52%
19:00 +19°C° 0 mm 2 mps 751 mmHg 60%
20:00 +17°C° 0 mm 2 mps 750 mmHg 68%
21:00 +17°C° 0 mm 2 mps 750 mmHg 71%
22:00 +16°C° 0 mm 3 mps 749 mmHg 74%
23:00 +14°C° 0 mm 3 mps 749 mmHg 77%

11 July, Saturday

Time Temperature Precipitation Wind Pressure Humidity
00:00 +14°C° 0.6 mm 4 mps 748 mmHg 82%
01:00 +14°C° 0.6 mm 4 mps 747 mmHg 87%
02:00 +14°C° 0.6 mm 5 mps 747 mmHg 92%
03:00 +14°C° 1 mm 4 mps 747 mmHg 93%
04:00 +14°C° 1 mm 4 mps 747 mmHg 94%
05:00 +14°C° 1 mm 4 mps 746 mmHg 95%
06:00 +14°C° 0.2 mm 4 mps 747 mmHg 89%
07:00 +15°C° 0.2 mm 5 mps 747 mmHg 84%
08:00 +15°C° 0.2 mm 5 mps 747 mmHg 78%
09:00 +16°C° 0.1 mm 5 mps 747 mmHg 71%
10:00 +17°C° 0.1 mm 6 mps 747 mmHg 64%
11:00 +19°C° 0.1 mm 6 mps 748 mmHg 58%
12:00 +17°C° 0.1 mm 6 mps 748 mmHg 58%
13:00 +17°C° 0.1 mm 6 mps 748 mmHg 59%
14:00 +17°C° 0.1 mm 6 mps 748 mmHg 60%
15:00 +16°C° 0.1 mm 6 mps 748 mmHg 61%
16:00 +16°C° 0.1 mm 6 mps 748 mmHg 63%
17:00 +15°C° 0.1 mm 6 mps 749 mmHg 65%
18:00 +14°C° 0.2 mm 6 mps 748 mmHg 71%
19:00 +13°C° 0.2 mm 5 mps 748 mmHg 77%
20:00 +12°C° 0.2 mm 5 mps 748 mmHg 84%
21:00 +12°C° 0.2 mm 5 mps 747 mmHg 86%
22:00 +10°C° 0.2 mm 5 mps 747 mmHg 89%
23:00 +10°C° 0.2 mm 5 mps 747 mmHg 92%
Show more